Regional Weather Roundup
Issued by NWS Wakefield, VA

Home | Current Version | Previous Version | Text Only | Print | Product List | Glossary Off
Versions: 1 2 3 4 5 6 7 8 9 10 11 12 13 14 15 16 17 18 19 20 21 22 23 24 25 26 27 28 29 30 31 32 33 34 35 36

000
ASUS41 KAKQ 282315
RWRAKQ

REGIONAL WEATHER ROUNDUP
NATIONAL WEATHER SERVICE WAKEFIELD VA
700 PM EDT TUE JUL 28 2015

Note: "fair" indicates few or no clouds below 12,000 feet with no
significant weather and/or obstructions to visibility. * = Denotes
station may not report precipitation (e.g., rain,snow,etc.),
thunder or fog.

VAZ042-051-052>054-056-290000-
NORTHERN VIRGINIA

CITY           SKY/WX    TMP DP  RH WIND       PRES   REMARKS
WASH NATIONAL  PTSUNNY   83  74  74 S16       29.97R
DULLES         PTSUNNY   84  72  67 SE15G21   29.96R
FORT BELVOIR   TSTM      77  73  88 VRB1      29.97F FOG
QUANTICO       MOSUNNY   81  73  76 S9        29.98R THUNDER
FREDERICKSBRG* LGT RAIN  77  77 100 CALM      29.96S
STAFFORD*      PTSUNNY   74  71  89 CALM      30.01S
WARRENTON      TSTM      75  74  95 S8        29.98R
CULPEPER*      CLOUDY    72  71  95 S7        30.00R
MANASSAS*      NOT AVBL
LEESBURG*      SUNNY     90  72  55 NE6       29.96R HX  96
WINCHESTER     MOSUNNY   86  72  62 SE5       29.97S
FRONT ROYAL*   FAIR      82  72  69 SE3       29.96R
LURAY*         FAIR      82  77  83 CALM      29.98R
$$

VAZ048-049-060>072-079>083-290000-
CENTRAL AND SOUTH CENTRAL VIRGINIA

CITY           SKY/WX    TMP DP  RH WIND       PRES   REMARKS
RICHMOND       CLOUDY    82  74  76 S3        29.97S
CHESTERFIELD*  FAIR      79  64  61 S3        29.98F
PETERSBURG*    CLOUDY    80  80 100 CALM      29.98F
HANOVER        CLOUDY    78  74  87 CALM      29.98F
TAPPAHANNOCK*  CLOUDY    77  74  88 CALM      29.99S
QUINTON*       FAIR      81  75  81 SE3       29.97F
CHARLOTTSVILLE CLOUDY    74  70  87 S9        29.99R
GORDONSVILLE*  CLOUDY    73  73 100 SW6       29.97F
ORANGE*        CLOUDY    75  73  94 CALM      30.00F
LOUISA*        RAIN      77  75  94 CALM      29.98F
BUMPASS*       CLOUDY    77  73  86 MISG      29.99S
FARMVILLE*     LGT RAIN  78  77  98 S6        29.95F
CREWE*         FAIR     N/A N/A N/A CALM      29.97F
FORT PICKETT*  FAIR      79  75  90 S3        29.98F
CHASE CITY*    FAIR      75  75 100 CALM      29.98F
CLARKSVILLE*   CLOUDY    73  73 100 CALM      29.97F
SOUTH HILL*    CLOUDY    76  75  95 NW3       30.04R
LAWRENCEVILLE* FAIR      81  75  83 CALM      29.97S
EMPORIA*       PTSUNNY   82  73  74 CALM      29.98F
$$

VAZ088>098-290000-
SOUTHEAST VIRGINIA

CITY           SKY/WX    TMP DP  RH WIND       PRES   REMARKS
NORFOLK        PTSUNNY   87  66  49 SW10      29.97S
VIRGINIA BEACH PTSUNNY   84  72  67 S9        29.97S
NORFOLK NAVAL  PTSUNNY   86  68  54 S3        29.98S
WEST POINT*    PTSUNNY   85  72  65 CALM      29.99R
SALUDA*        FAIR      81  76  85 W6        29.98R
NEWPORT NEWS   MOSUNNY   85  68  56 SW10      29.98R
LANGLEY AFB    NOT AVBL
FORT EUSTIS    MOSUNNY   85  64  49 VRB7      29.96R
WILLIAMSBURG*  MOSUNNY   86  75  70 S3        29.98S HX  95
HR EXEC AP*    FAIR      84  70  61 S7        29.99S
FRANKLIN*      PTSUNNY   84  73  67 CALM      29.98S
WAKEFIELD      CLOUDY    83  75  77 CALM      29.97F
$$

VAZ020-022-025-037-045-290000-
WEST CENTRAL AND SOUTHWEST VIRGINIA

CITY           SKY/WX    TMP DP  RH WIND       PRES   REMARKS
STAUNTON*      PTSUNNY   85  74  70 NE7       30.01R
WAYNESBORO*    CLOUDY    76  74  92 CALM      30.01R
HOT SPRINGS VA HVY RAIN  71  68  92 CALM      30.13R VSB 1/2
LYNCHBURG      CLOUDY    77  72  84 S13       30.01R
DANVILLE       PTSUNNY   75  73  93 CALM      29.99S
SOUTH BOSTON*  MOCLDY    74  73  95 S6        29.97F
MARTINSVILLE   PTSUNNY   81  72  73 S3        30.02R
ROANOKE        PTSUNNY   80  69  69 NE7       30.00S THUNDER
BLACKSBURG     CLOUDY    74  71  89 E5        30.07R THUNDER
DUBLIN*          N/A     82  71  69 CALM      30.06R
MARION*        MOSUNNY   82  69  65 CALM      30.08S
HILLSVILLE*    LGT RAIN  72  68  87 SE3       30.06S
RICHLANDS*     FAIR      82  72  72 NE3       30.06S
WISE*          MOSUNNY   82  64  54 W5        30.09S
ABINGDON*      SUNNY     86  67  53 NW3       30.03R
$$

MDZ021>025-VAZ099-100-290000-
SOUTHERN MARYLAND AND THE DELMARVA PENINSULA

CITY           SKY/WX    TMP DP  RH WIND       PRES   REMARKS
PATUXENT RIVER MOSUNNY   81  72  74 SW6       29.97R
BAY BRIDGE APT   N/A     86  72  62 SW7       29.96R
LEONARDTOWN    MOSUNNY   79  70  73 SW3       30.00R
DOVER          SUNNY     83  76  78 SE7       29.94F
GEORGETOWN     MOSUNNY   77  70  79 SW9       29.97F
EASTON         MOSUNNY   88  75  66 SW7       30.00R HX  97
CAMBRIDGE      SUNNY     84  70  61 SW5       29.97R
SALISBURY      PTSUNNY   78  73  84 E6        29.98S
OCEAN CITY     CLOUDY    78  73  84 SW3       29.97F
WALLOPS ISLAND MOSUNNY   81  71  71 S9        29.99S
ACCOMACK*      SUNNY    N/A N/A N/A S6        29.98R
$$

NCZ012>017-030>032-290000-
NORTH CENTRAL AND EASTERN NORTH CAROLINA

CITY           SKY/WX    TMP DP  RH WIND       PRES   REMARKS
ROANOKE RAPIDS FAIR      82  72  69 CALM      29.96F
RALEIGH        LGT RAIN  85  71  63 VRB3      29.96F
ELIZABETH CITY PTSUNNY   84  73  69 E10       29.98R
AHOSKIE*       PTSUNNY   83  68  61 S5        29.97S
EDENTON*         N/A     84  72  65 SW7       29.98R
CURRITUCK*     PTSUNNY   85  70  61 CALM      29.99R
KILL DEVIL HLS PTSUNNY   85  69  59 SE7       29.99R
MANTEO         PTSUNNY   82  69  65 S5        30.00R
CAPE HATTERAS  MOSUNNY   84  69  60 E8        29.98F
TARBORO*         N/A     86  71  60 E3        29.97S
GOLDSBORO      CLOUDY    86  73  65 E3        29.94S
WASHINGTON     PTSUNNY   84  69  61 SE7       29.97S
GREENVILLE     CLOUDY    86  72  62 SE6       29.98S
NEW BERN       MOSUNNY   83  68  60 SE5       29.97F
WILMINGTON     SUNNY     83  71  67 E8        29.96F
$$

VAZ048-290000-
ELSEWHERE

CITY           SKY/WX    TMP DP  RH WIND       PRES   REMARKS
HARRISBURG PA  MOSUNNY   85  73  67 CALM      29.94F
BALTIMORE      MOSUNNY   88  66  48 SE6       29.95R
ANNAPOLIS      SUNNY     84  70  62 S12       29.96R
ANDREWS AFB    MOSUNNY   82  73  75 S15       29.97R
PHILADELPHIA   MOSUNNY   91  68  46 SW9       29.93F HX  95
HENDERSON NC   CLOUDY    76  72  86 CALM      29.98S
GREENSBORO     RAIN      80  76  87 CALM      29.99R FOG
ROCKY MOUNT    CLOUDY    83  72  69 CALM      29.96F
$$

VAZ100-290000-
MARINE

STATION/POSITION TIME  TEMP    WIND        PRES    WAVE   SWELL
                       AIR SEA DIR/SP/G            HT/PER HT/PER
                 (UTC) (F)     (DEG/KT/KT) (MB)    (FT/S) (FT/S)
BRANDYWINE LGT   2200   78 75  180/ 16/ 17 1015.0F
CAPE MAY NJ      2200   80 82  160/ 10/ 12 1014.6F
LEWES DE         2200   84 76  180/  7/ 10 1014.7F
15NM E FENWICK I 2250   79 79  200/ 12/ 14 1015.1F   3/ 6   2/ 6
OCEAN-CITY-INLET 2200   77 76  220/ 11/ 12 1014.6F
WACHAPREAGUE VA  2200   83 86  180/  9/ 11 1015.1F
GOOSES REEF MD   2300   84 82  240/ 10/ 12 1015.8R
COVE POINT MD    2200   83     220/  7/ 10 1015.0F
SOLOMONS ISLAND  2200      84                N/A
BISHOPS HEAD MD  2200   84 86  200/ 11/ 13 1013.8F
POTOMAC MD       2300   83 84  240/  8/ 10 1013.8R   1/ 2
CAMBRIDGE MD     2200   86 83  180/  5/  9 1013.6F
LEWISETTA VA     2200   82 86  260/  7/  9 1014.4F
RAPPAHANNOCK LGT 2200          170/  7/  8 1015.4F
STINGRAY PT      2300   83 84  180/ 12/ 14 1015.0R   2/ 2
YORK RVR RNG VA  2200   83     160/ 11/ 12 1014.1F
YORKTOWN VA      2200   84 82  230/  7/  9 1014.4F
JAMESTOWN VA     2300   84 85  190/  4/  6   N/A
DOMINION TERM VA 2200   85     210/  5/  6 1014.8F
KIPTOPEKE VA     2200      84  160/ 11/ 12   N/A
CHES BAY BRIDGE  2200   86 79  180/  5/  6 1014.4F
CAPE HENRY VA    2200   81     140/ 10/ 15   N/A
CHESAPEAKE LGHT  2200   80     150/ 12/ 13 1015.7F
WILLOUBY STN VA  2200   86     250/  7/  7 1015.7F
CAPE HENRY BUOY  2228      82                N/A     2/11
1ST LANDING BUOY 2300      82              1014.7R   1/ 3
CAPE CHARLES BUO 2226      82                N/A     2/11   2/11
OFFSHORE WE BUOY 2211      82                N/A     2/10   2/10
64NM E OF VA BCH 2250   81 82  200/  4/  6 1015.2F   2/11   2/11
DUCK PIER NC     2200   81 77  130/ 13/ 14 1014.3F
44100 DUCK FRF   2224      82                N/A     2/11   2/11
44056 DUCK FRF   2211      81                N/A     2/11   2/11
OREGON INLET NC  2200   82 87  130/  6/ 10 1015.4F
HATTERAS NC      2200   83 83  120/  7/  9 1015.0F
CAPE LOOKOUT NC  2300   81      90/  9/ 10 1014.4F
$$



USA.gov is the U.S. government's official web portal to all federal, state and local government web resources and services.